Time,TemperatureF,DewpointF,PressureIn,WindDirection,WindDirectionDegrees,WindSpeedMPH,WindSpeedGustMPH,Humidity,HourlyPrecipIn,Conditions,Clouds,dailyrainin,SoftwareType,DateUTC
2013-07-13 00:45:00,57.0,55.0,30.03,South,180,0.0,0.0,92,0.00,,,0.00,TxWx,2013-07-13 04:45:00,
2013-07-13 00:50:00,57.0,55.0,30.04,South,180,0.0,0.0,92,0.00,,,0.00,TxWx,2013-07-13 04:50:00,
2013-07-13 00:55:00,57.0,55.0,30.04,SSW,202,0.0,0.0,92,0.00,,,0.00,TxWx,2013-07-13 04:55:00,
2013-07-13 01:00:00,57.0,55.0,30.04,SSW,202,0.0,0.0,92,0.00,,,0.00,TxWx,2013-07-13 05:00:00,
2013-07-13 01:06:00,57.0,55.0,30.04,SSW,202,0.0,0.0,92,0.00,,,0.00,TxWx,2013-07-13 05:06:00,
2013-07-13 01:11:00,57.0,55.0,30.04,South,180,0.0,0.0,92,0.00,,,0.00,TxWx,2013-07-13 05:11:00,
2013-07-13 01:16:00,57.0,55.0,30.04,South,180,0.0,0.0,93,0.00,,,0.00,TxWx,2013-07-13 05:16:00,
2013-07-13 01:21:00,57.0,55.0,30.04,South,180,0.0,0.0,93,0.00,,,0.00,TxWx,2013-07-13 05:21:00,
2013-07-13 01:26:00,57.0,55.0,30.04,South,180,0.0,0.0,93,0.00,,,0.00,TxWx,2013-07-13 05:26:00,
2013-07-13 01:32:00,57.0,55.0,30.04,South,180,0.0,0.0,93,0.00,,,0.00,TxWx,2013-07-13 05:32:00,
2013-07-13 01:37:00,56.0,54.0,30.04,South,180,0.0,0.0,93,0.00,,,0.00,TxWx,2013-07-13 05:37:00,
2013-07-13 01:42:00,56.0,54.0,30.05,South,180,0.0,0.0,93,0.00,,,0.00,TxWx,2013-07-13 05:42:00,
2013-07-13 01:47:00,56.0,54.0,30.05,SW,225,0.0,0.0,93,0.00,,,0.00,TxWx,2013-07-13 05:47:00,
2013-07-13 01:52:00,56.0,54.0,30.05,SSW,202,0.0,0.0,94,0.00,,,0.00,TxWx,2013-07-13 05:52:00,
2013-07-13 01:58:00,56.0,54.0,30.05,South,180,0.0,0.0,94,0.00,,,0.00,TxWx,2013-07-13 05:58:00,
2013-07-13 02:03:00,56.0,54.0,30.05,South,180,0.0,0.0,94,0.00,,,0.00,TxWx,2013-07-13 06:03:00,
2013-07-13 02:08:00,56.0,54.0,30.05,South,180,0.0,0.0,94,0.00,,,0.00,TxWx,2013-07-13 06:08:00,
2013-07-13 02:13:00,56.0,54.0,30.05,SSE,157,0.0,1.0,94,0.00,,,0.00,TxWx,2013-07-13 06:13:00,
2013-07-13 02:19:00,56.0,54.0,30.05,SE,135,2.0,2.0,94,0.00,,,0.00,TxWx,2013-07-13 06:19:00,
2013-07-13 02:24:00,56.0,54.0,30.05,SE,135,1.0,2.0,95,0.00,,,0.00,TxWx,2013-07-13 06:24:00,
2013-07-13 02:29:00,56.0,54.0,30.05,SSE,157,1.0,1.0,95,0.00,,,0.00,TxWx,2013-07-13 06:29:00,
2013-07-13 02:34:00,56.0,55.0,30.05,SSE,157,0.0,0.0,95,0.00,,,0.00,TxWx,2013-07-13 06:34:00,
2013-07-13 02:40:00,56.0,55.0,30.05,SSE,157,1.0,1.0,95,0.00,,,0.00,TxWx,2013-07-13 06:40:00,
2013-07-13 02:45:00,56.0,55.0,30.05,SE,135,1.0,1.0,95,0.00,,,0.00,TxWx,2013-07-13 06:45:00,
2013-07-13 02:50:00,56.0,55.0,30.05,SSE,157,1.0,1.0,96,0.00,,,0.00,TxWx,2013-07-13 06:50:00,
2013-07-13 02:55:00,55.0,54.0,30.05,South,180,0.0,1.0,96,0.00,,,0.00,TxWx,2013-07-13 06:55:00,
2013-07-13 03:01:00,55.0,54.0,30.05,SSW,202,0.0,0.0,96,0.00,,,0.00,TxWx,2013-07-13 07:01:00,
2013-07-13 03:06:00,55.0,54.0,30.06,South,180,0.0,0.0,96,0.00,,,0.00,TxWx,2013-07-13 07:06:00,
2013-07-13 03:11:00,55.0,54.0,30.06,South,180,0.0,1.0,96,0.00,,,0.00,TxWx,2013-07-13 07:11:00,
2013-07-13 03:16:00,55.0,54.0,30.06,SE,135,1.0,2.0,96,0.00,,,0.00,TxWx,2013-07-13 07:16:00,
2013-07-13 03:21:00,55.0,54.0,30.05,South,180,0.0,0.0,96,0.00,,,0.00,TxWx,2013-07-13 07:21:00,
2013-07-13 03:27:00,55.0,54.0,30.06,South,180,0.0,0.0,96,0.00,,,0.00,TxWx,2013-07-13 07:27:00,
2013-07-13 03:32:00,55.0,54.0,30.05,South,180,0.0,1.0,96,0.00,,,0.00,TxWx,2013-07-13 07:32:00,
2013-07-13 03:37:00,55.0,54.0,30.05,South,180,0.0,0.0,96,0.00,,,0.00,TxWx,2013-07-13 07:37:00,
2013-07-13 03:42:00,55.0,54.0,30.05,SSE,157,0.0,0.0,96,0.00,,,0.00,TxWx,2013-07-13 07:42:00,
2013-07-13 03:47:00,55.0,54.0,30.05,SSE,157,0.0,0.0,96,0.00,,,0.00,TxWx,2013-07-13 07:47:00,
2013-07-13 03:53:00,55.0,54.0,30.05,South,180,0.0,0.0,96,0.00,,,0.00,TxWx,2013-07-13 07:53:00,
2013-07-13 03:58:00,54.0,53.0,30.05,WSW,247,0.0,0.0,97,0.00,,,0.00,TxWx,2013-07-13 07:58:00,
2013-07-13 04:04:00,54.0,53.0,30.05,SSW,202,0.0,0.0,97,0.00,,,0.00,TxWx,2013-07-13 08:04:00,
2013-07-13 04:09:00,54.0,53.0,30.05,SSE,157,0.0,0.0,97,0.00,,,0.00,TxWx,2013-07-13 08:09:00,
2013-07-13 04:14:00,54.0,53.0,30.05,South,180,0.0,0.0,97,0.00,,,0.00,TxWx,2013-07-13 08:14:00,
2013-07-13 04:19:00,54.0,53.0,30.05,SSE,157,0.0,0.0,97,0.00,,,0.00,TxWx,2013-07-13 08:19:00,
2013-07-13 04:24:00,54.0,53.0,30.05,South,180,0.0,0.0,97,0.00,,,0.00,TxWx,2013-07-13 08:24:00,
2013-07-13 04:29:00,54.0,53.0,30.05,South,180,0.0,0.0,97,0.00,,,0.00,TxWx,2013-07-13 08:29:00,
2013-07-13 04:35:00,54.0,53.0,30.05,South,180,0.0,0.0,97,0.00,,,0.00,TxWx,2013-07-13 08:35:00,
2013-07-13 04:40:00,54.0,53.0,30.05,SSW,202,0.0,0.0,97,0.00,,,0.00,TxWx,2013-07-13 08:40:00,
2013-07-13 04:45:00,54.0,53.0,30.05,South,180,0.0,0.0,97,0.00,,,0.00,TxWx,2013-07-13 08:45:00,
2013-07-13 04:50:00,54.0,53.0,30.05,South,180,0.0,0.0,97,0.00,,,0.00,TxWx,2013-07-13 08:50:00,
2013-07-13 04:55:00,54.0,53.0,30.05,South,180,0.0,0.0,97,0.00,,,0.00,TxWx,2013-07-13 08:55:00,
2013-07-13 05:02:00,54.0,53.0,30.05,SSE,157,0.0,0.0,97,0.00,,,0.00,TxWx,2013-07-13 09:02:00,
2013-07-13 05:07:00,54.0,53.0,30.05,South,180,0.0,0.0,97,0.00,,,0.00,TxWx,2013-07-13 09:07:00,
2013-07-13 05:12:00,54.0,52.0,30.05,ENE,67,0.0,0.0,97,0.00,,,0.00,TxWx,2013-07-13 09:12:00,
2013-07-13 05:18:00,54.0,53.0,30.05,South,180,0.0,0.0,98,0.00,,,0.00,TxWx,2013-07-13 09:18:00,
2013-07-13 05:23:00,54.0,53.0,30.06,SSE,157,0.0,0.0,98,0.00,,,0.00,TxWx,2013-07-13 09:23:00,
2013-07-13 05:29:00,54.0,53.0,30.06,South,180,0.0,0.0,98,0.00,,,0.00,TxWx,2013-07-13 09:29:00,
2013-07-13 05:34:00,54.0,53.0,30.06,South,180,0.0,0.0,98,0.00,,,0.00,TxWx,2013-07-13 09:34:00,
2013-07-13 05:39:00,54.0,53.0,30.06,South,180,0.0,0.0,98,0.00,,,0.00,TxWx,2013-07-13 09:39:00,
2013-07-13 05:44:00,54.0,53.0,30.06,South,180,0.0,0.0,98,0.00,,,0.00,TxWx,2013-07-13 09:44:00,
2013-07-13 05:49:00,54.0,53.0,30.06,SSE,157,0.0,0.0,98,0.00,,,0.00,TxWx,2013-07-13 09:49:00,
2013-07-13 05:54:00,54.0,53.0,30.06,South,180,0.0,0.0,98,0.00,,,0.00,TxWx,2013-07-13 09:54:00,
2013-07-13 06:00:00,54.0,53.0,30.06,South,180,0.0,0.0,98,0.00,,,0.00,TxWx,2013-07-13 10:00:00,
2013-07-13 06:05:00,54.0,53.0,30.07,SSW,202,0.0,0.0,98,0.00,,,0.00,TxWx,2013-07-13 10:05:00,
2013-07-13 06:10:00,54.0,53.0,30.07,South,180,0.0,0.0,98,0.00,,,0.00,TxWx,2013-07-13 10:10:00,
2013-07-13 06:15:00,54.0,54.0,30.07,SE,135,0.0,0.0,99,0.00,,,0.00,TxWx,2013-07-13 10:15:00,
2013-07-13 06:21:00,55.0,55.0,30.07,South,180,0.0,0.0,99,0.00,,,0.00,TxWx,2013-07-13 10:21:00,
2013-07-13 06:26:00,55.0,55.0,30.08,SE,135,0.0,0.0,99,0.00,,,0.00,TxWx,2013-07-13 10:26:00,
2013-07-13 06:31:00,55.0,55.0,30.08,South,180,0.0,0.0,99,0.00,,,0.00,TxWx,2013-07-13 10:31:00,
2013-07-13 06:36:00,56.0,56.0,30.08,South,180,0.0,0.0,99,0.00,,,0.00,TxWx,2013-07-13 10:36:00,
2013-07-13 06:41:00,56.0,56.0,30.08,SE,135,0.0,0.0,99,0.00,,,0.00,TxWx,2013-07-13 10:41:00,
2013-07-13 06:47:00,57.0,57.0,30.08,SSW,202,0.0,0.0,99,0.00,,,0.00,TxWx,2013-07-13 10:47:00,
2013-07-13 06:52:00,57.0,57.0,30.08,South,180,0.0,0.0,99,0.00,,,0.00,TxWx,2013-07-13 10:52:00,
2013-07-13 06:57:00,57.0,57.0,30.08,South,180,0.0,0.0,99,0.00,,,0.00,TxWx,2013-07-13 10:57:00,
2013-07-13 07:02:00,57.0,57.0,30.08,SSE,157,0.0,0.0,99,0.00,,,0.00,TxWx,2013-07-13 11:02:00,
2013-07-13 07:07:00,57.0,57.0,30.08,South,180,0.0,0.0,99,0.00,,,0.00,TxWx,2013-07-13 11:07:00,
2013-07-13 07:12:00,57.0,57.0,30.08,SSE,157,0.0,0.0,99,0.00,,,0.00,TxWx,2013-07-13 11:12:00,
2013-07-13 07:18:00,57.0,57.0,30.08,South,180,0.0,0.0,99,0.00,,,0.00,TxWx,2013-07-13 11:18:00,
2013-07-13 07:23:00,57.0,57.0,30.08,ESE,112,3.0,3.0,99,0.00,,,0.00,TxWx,2013-07-13 11:23:00,
2013-07-13 07:28:00,57.0,57.0,30.08,SE,135,1.0,2.0,99,0.00,,,0.00,TxWx,2013-07-13 11:28:00,
2013-07-13 07:33:00,58.0,58.0,30.08,SSE,157,1.0,1.0,99,0.00,,,0.00,TxWx,2013-07-13 11:33:00,
2013-07-13 07:38:00,58.0,58.0,30.08,South,180,0.0,1.0,99,0.00,,,0.00,TxWx,2013-07-13 11:38:00,
2013-07-13 07:44:00,59.0,59.0,30.08,SE,135,2.0,3.0,99,0.00,,,0.00,TxWx,2013-07-13 11:44:00,
2013-07-13 07:49:00,59.0,59.0,30.08,SE,135,1.0,2.0,99,0.00,,,0.00,TxWx,2013-07-13 11:49:00,
2013-07-13 07:54:00,59.0,59.0,30.08,North,0,1.0,1.0,99,0.00,,,0.00,TxWx,2013-07-13 11:54:00,
2013-07-13 07:59:00,60.0,60.0,30.08,SSE,157,2.0,2.0,99,0.00,,,0.00,TxWx,2013-07-13 11:59:00,
2013-07-13 08:05:00,60.0,60.0,30.08,SE,135,2.0,2.0,99,0.00,,,0.00,TxWx,2013-07-13 12:05:00,
2013-07-13 08:10:00,61.0,61.0,30.09,South,180,0.0,1.0,100,0.00,,,0.00,TxWx,2013-07-13 12:10:00,
2013-07-13 08:15:00,62.0,62.0,30.09,South,180,1.0,1.0,100,0.00,,,0.00,TxWx,2013-07-13 12:15:00,
2013-07-13 08:20:00,62.0,62.0,30.09,NW,315,1.0,2.0,100,0.00,,,0.00,TxWx,2013-07-13 12:20:00,
2013-07-13 08:25:00,63.0,63.0,30.10,West,270,1.0,2.0,100,0.00,,,0.00,TxWx,2013-07-13 12:25:00,
2013-07-13 08:30:00,63.0,63.0,30.10,SSW,202,1.0,1.0,100,0.00,,,0.00,TxWx,2013-07-13 12:30:00,
2013-07-13 08:35:00,64.0,64.0,30.10,SSE,157,1.0,2.0,100,0.00,,,0.00,TxWx,2013-07-13 12:35:00,
2013-07-13 08:41:00,65.0,65.0,30.10,ESE,112,2.0,3.0,99,0.00,,,0.00,TxWx,2013-07-13 12:41:00,
2013-07-13 08:46:00,66.0,66.0,30.10,South,180,0.0,1.0,99,0.00,,,0.00,TxWx,2013-07-13 12:46:00,
2013-07-13 08:51:00,66.0,66.0,30.10,South,180,0.0,1.0,99,0.00,,,0.00,TxWx,2013-07-13 12:51:00,
2013-07-13 08:56:00,67.0,66.0,30.10,South,180,1.0,1.0,98,0.00,,,0.00,TxWx,2013-07-13 12:56:00,
2013-07-13 09:01:00,67.0,66.0,30.10,SW,225,1.0,1.0,98,0.00,,,0.00,TxWx,2013-07-13 13:01:00,
2013-07-13 09:06:00,67.0,66.0,30.10,NE,45,1.0,1.0,97,0.00,,,0.00,TxWx,2013-07-13 13:06:00,
2013-07-13 09:11:00,67.0,66.0,30.10,ESE,112,2.0,3.0,97,0.00,,,0.00,TxWx,2013-07-13 13:11:00,
2013-07-13 09:17:00,68.0,67.0,30.10,South,180,0.0,0.0,96,0.00,,,0.00,TxWx,2013-07-13 13:17:00,
2013-07-13 09:22:00,68.0,66.0,30.10,South,180,1.0,2.0,95,0.00,,,0.00,TxWx,2013-07-13 13:22:00,
2013-07-13 09:27:00,68.0,66.0,30.10,South,180,0.0,0.0,94,0.00,,,0.00,TxWx,2013-07-13 13:27:00,
2013-07-13 09:33:00,69.0,67.0,30.10,SE,135,1.0,1.0,92,0.00,,,0.00,TxWx,2013-07-13 13:33:00,
2013-07-13 09:38:00,69.0,66.0,30.10,SSE,157,1.0,1.0,91,0.00,,,0.00,TxWx,2013-07-13 13:38:00,
2013-07-13 09:43:00,69.0,66.0,30.10,NNW,337,1.0,2.0,90,0.00,,,0.00,TxWx,2013-07-13 13:43:00,
2013-07-13 09:48:00,69.0,65.0,30.10,SSW,202,0.0,1.0,89,0.00,,,0.00,TxWx,2013-07-13 13:48:00,
2013-07-13 09:53:00,69.0,64.0,30.10,SSE,157,2.0,3.0,86,0.00,,,0.00,TxWx,2013-07-13 13:53:00,
2013-07-13 09:59:00,69.0,64.0,30.10,NNE,22,3.0,3.0,84,0.00,,,0.00,TxWx,2013-07-13 13:59:00,
2013-07-13 10:04:00,69.0,63.0,30.10,ESE,112,5.0,6.0,80,0.00,,,0.00,TxWx,2013-07-13 14:04:00,
2013-07-13 10:09:00,69.0,62.0,30.10,SE,135,2.0,3.0,78,0.00,,,0.00,TxWx,2013-07-13 14:09:00,
2013-07-13 10:14:00,69.0,61.0,30.10,SSE,157,2.0,4.0,75,0.00,,,0.00,TxWx,2013-07-13 14:14:00,
2013-07-13 10:19:00,69.0,60.0,30.10,South,180,1.0,2.0,74,0.00,,,0.00,TxWx,2013-07-13 14:19:00,
2013-07-13 10:24:00,70.0,61.0,30.10,SSW,202,1.0,2.0,75,0.00,,,0.00,TxWx,2013-07-13 14:24:00,
2013-07-13 10:30:00,70.0,60.0,30.10,SSE,157,3.0,4.0,72,0.00,,,0.00,TxWx,2013-07-13 14:30:00,
2013-07-13 10:35:00,70.0,60.0,30.10,SE,135,2.0,2.0,71,0.00,,,0.00,TxWx,2013-07-13 14:35:00,
2013-07-13 10:40:00,70.0,61.0,30.10,SE,135,2.0,4.0,72,0.00,,,0.00,TxWx,2013-07-13 14:40:00,
2013-07-13 10:45:00,70.0,60.0,30.10,SSE,157,1.0,3.0,70,0.00,,,0.00,TxWx,2013-07-13 14:45:00,
2013-07-13 10:51:00,70.0,60.0,30.10,South,180,1.0,1.0,70,0.00,,,0.00,TxWx,2013-07-13 14:51:00,
2013-07-13 10:56:00,70.0,59.0,30.10,SSW,202,2.0,4.0,69,0.00,,,0.00,TxWx,2013-07-13 14:56:00,
2013-07-13 11:01:00,70.0,60.0,30.11,SSE,157,3.0,4.0,70,0.00,,,0.00,TxWx,2013-07-13 15:01:00,
2013-07-13 11:06:00,70.0,60.0,30.11,SE,135,2.0,3.0,70,0.00,,,0.00,TxWx,2013-07-13 15:06:00,
2013-07-13 11:12:00,69.0,59.0,30.11,SSE,157,3.0,4.0,70,0.00,,,0.00,TxWx,2013-07-13 15:12:00,
2013-07-13 11:17:00,69.0,59.0,30.11,ESE,112,2.0,3.0,70,0.00,,,0.00,TxWx,2013-07-13 15:17:00,
2013-07-13 11:23:00,69.0,59.0,30.11,SSE,157,3.0,3.0,71,0.00,,,0.00,TxWx,2013-07-13 15:23:00,
2013-07-13 11:28:00,69.0,59.0,30.11,SE,135,2.0,3.0,71,0.00,,,0.00,TxWx,2013-07-13 15:28:00,
2013-07-13 11:33:00,70.0,60.0,30.11,SSE,157,2.0,3.0,72,0.00,,,0.00,TxWx,2013-07-13 15:33:00,
2013-07-13 11:38:00,70.0,60.0,30.11,East,90,3.0,5.0,72,0.00,,,0.00,TxWx,2013-07-13 15:38:00,
2013-07-13 11:43:00,69.0,60.0,30.12,SSE,157,5.0,6.0,72,0.00,,,0.00,TxWx,2013-07-13 15:43:00,
2013-07-13 11:49:00,68.0,59.0,30.11,SSE,157,5.0,5.0,73,0.00,,,0.00,TxWx,2013-07-13 15:49:00,
2013-07-13 11:54:00,68.0,59.0,30.11,ESE,112,3.0,3.0,74,0.00,,,0.00,TxWx,2013-07-13 15:54:00,
2013-07-13 11:59:00,68.0,59.0,30.11,ESE,112,2.0,3.0,74,0.00,,,0.00,TxWx,2013-07-13 15:59:00,
2013-07-13 12:04:00,68.0,59.0,30.11,East,90,3.0,5.0,74,0.00,,,0.00,TxWx,2013-07-13 16:04:00,
2013-07-13 12:10:00,68.0,59.0,30.11,South,180,0.0,1.0,74,0.00,,,0.00,TxWx,2013-07-13 16:10:00,
2013-07-13 12:15:00,69.0,60.0,30.11,NNE,22,5.0,5.0,74,0.00,,,0.00,TxWx,2013-07-13 16:15:00,
2013-07-13 12:20:00,69.0,59.0,30.11,SSE,157,2.0,3.0,72,0.00,,,0.00,TxWx,2013-07-13 16:20:00,
2013-07-13 12:25:00,69.0,59.0,30.10,SSE,157,2.0,3.0,71,0.00,,,0.00,TxWx,2013-07-13 16:25:00,
2013-07-13 12:30:00,70.0,60.0,30.10,SSE,157,2.0,2.0,71,0.00,,,0.00,TxWx,2013-07-13 16:30:00,
2013-07-13 12:35:00,71.0,61.0,30.10,SE,135,3.0,4.0,70,0.00,,,0.00,TxWx,2013-07-13 16:35:00,
2013-07-13 12:40:00,71.0,60.0,30.10,South,180,3.0,5.0,70,0.00,,,0.00,TxWx,2013-07-13 16:40:00,
2013-07-13 12:45:00,71.0,60.0,30.10,ESE,112,5.0,6.0,69,0.00,,,0.00,TxWx,2013-07-13 16:45:00,
2013-07-13 12:51:00,71.0,60.0,30.10,SE,135,4.0,4.0,70,0.00,,,0.00,TxWx,2013-07-13 16:51:00,
2013-07-13 12:56:00,71.0,61.0,30.10,SE,135,2.0,3.0,71,0.00,,,0.00,TxWx,2013-07-13 16:56:00,
2013-07-13 13:01:00,71.0,61.0,30.11,WSW,247,1.0,3.0,71,0.00,,,0.00,TxWx,2013-07-13 17:01:00,
2013-07-13 13:07:00,70.0,61.0,30.11,East,90,5.0,6.0,73,0.00,,,0.00,TxWx,2013-07-13 17:07:00,
2013-07-13 13:09:00,70.0,61.0,30.11,East,90,4.0,5.0,73,0.00,,,0.00,TxWx,2013-07-13 17:09:00,
2013-07-13 13:14:00,71.0,62.0,30.11,SE,135,3.0,3.0,74,0.00,,,0.00,TxWx,2013-07-13 17:14:00,
2013-07-13 13:19:00,71.0,62.0,30.11,East,90,6.0,6.0,73,0.00,,,0.00,TxWx,2013-07-13 17:19:00,
2013-07-13 13:24:00,71.0,62.0,30.11,ENE,67,4.0,5.0,74,0.00,,,0.00,TxWx,2013-07-13 17:24:00,
2013-07-13 13:30:00,71.0,62.0,30.11,East,90,3.0,6.0,74,0.00,,,0.00,TxWx,2013-07-13 17:30:00,
2013-07-13 13:35:00,71.0,62.0,30.10,East,90,2.0,2.0,74,0.00,,,0.00,TxWx,2013-07-13 17:35:00,
2013-07-13 13:40:00,71.0,62.0,30.11,NE,45,5.0,6.0,74,0.00,,,0.00,TxWx,2013-07-13 17:40:00,
2013-07-13 13:46:00,71.0,62.0,30.10,South,180,3.0,8.0,74,0.00,,,0.00,TxWx,2013-07-13 17:46:00,
2013-07-13 13:51:00,71.0,62.0,30.10,SSE,157,2.0,3.0,75,0.00,,,0.00,TxWx,2013-07-13 17:51:00,
2013-07-13 13:56:00,71.0,63.0,30.10,ENE,67,4.0,5.0,75,0.00,,,0.00,TxWx,2013-07-13 17:56:00,
2013-07-13 14:01:00,71.0,63.0,30.10,ESE,112,3.0,4.0,76,0.00,,,0.00,TxWx,2013-07-13 18:01:00,
2013-07-13 14:07:00,71.0,63.0,30.10,East,90,8.0,8.0,76,0.00,,,0.00,TxWx,2013-07-13 18:07:00,
2013-07-13 14:12:00,71.0,63.0,30.10,East,90,3.0,5.0,77,0.00,,,0.00,TxWx,2013-07-13 18:12:00,
2013-07-13 14:17:00,71.0,63.0,30.10,ESE,112,6.0,6.0,76,0.00,,,0.00,TxWx,2013-07-13 18:17:00,
2013-07-13 14:22:00,71.0,63.0,30.09,SE,135,5.0,5.0,75,0.00,,,0.00,TxWx,2013-07-13 18:22:00,
2013-07-13 14:27:00,72.0,64.0,30.09,ESE,112,6.0,6.0,75,0.00,,,0.00,TxWx,2013-07-13 18:27:00,
2013-07-13 14:33:00,72.0,63.0,30.09,ESE,112,8.0,8.0,74,0.00,,,0.00,TxWx,2013-07-13 18:33:00,
2013-07-13 14:38:00,72.0,63.0,30.09,East,90,6.0,6.0,74,0.00,,,0.00,TxWx,2013-07-13 18:38:00,
2013-07-13 14:43:00,72.0,63.0,30.09,SSE,157,2.0,2.0,75,0.00,,,0.00,TxWx,2013-07-13 18:43:00,
2013-07-13 14:48:00,72.0,63.0,30.09,SE,135,3.0,5.0,74,0.00,,,0.00,TxWx,2013-07-13 18:48:00,
2013-07-13 14:53:00,72.0,63.0,30.10,ESE,112,8.0,8.0,74,0.00,,,0.00,TxWx,2013-07-13 18:53:00,
2013-07-13 14:59:00,72.0,63.0,30.09,ESE,112,2.0,3.0,74,0.00,,,0.00,TxWx,2013-07-13 18:59:00,
2013-07-13 15:00:00,63.0,61.0,30.12,South,180,0.0,0.0,93,0.00,,,0.00,TxWx,2013-07-13 19:00:00,
2013-07-13 15:01:00,63.0,61.0,30.12,South,180,0.0,0.0,93,0.00,,,0.00,TxWx,2013-07-13 19:01:00,
2013-07-13 15:02:00,63.0,61.0,30.12,South,180,0.0,0.0,93,0.00,,,0.00,TxWx,2013-07-13 19:02:00,
2013-07-13 15:04:00,72.0,64.0,30.10,ESE,112,5.0,5.0,75,0.00,,,0.00,TxWx,2013-07-13 19:04:00,
2013-07-13 15:05:00,63.0,61.0,30.12,SE,135,0.0,0.0,94,0.00,,,0.00,TxWx,2013-07-13 19:05:00,
2013-07-13 15:06:00,63.0,61.0,30.12,SSE,157,0.0,0.0,94,0.00,,,0.00,TxWx,2013-07-13 19:06:00,
2013-07-13 15:07:00,63.0,61.0,30.12,South,180,0.0,0.0,94,0.00,,,0.00,TxWx,2013-07-13 19:07:00,
2013-07-13 15:08:00,63.0,61.0,30.12,South,180,0.0,0.0,94,0.00,,,0.00,TxWx,2013-07-13 19:08:00,
2013-07-13 15:09:00,72.0,64.0,30.09,ENE,67,5.0,5.0,76,0.00,,,0.00,TxWx,2013-07-13 19:09:00,
2013-07-13 15:10:00,63.0,61.0,30.12,South,180,0.0,0.0,94,0.00,,,0.00,TxWx,2013-07-13 19:10:00,
2013-07-13 15:11:00,63.0,61.0,30.12,South,180,0.0,0.0,94,0.00,,,0.00,TxWx,2013-07-13 19:11:00,
2013-07-13 15:12:00,63.0,61.0,30.12,SSE,157,0.0,0.0,94,0.00,,,0.00,TxWx,2013-07-13 19:12:00,
2013-07-13 15:13:00,63.0,61.0,30.12,South,180,0.0,0.0,94,0.00,,,0.00,TxWx,2013-07-13 19:13:00,
2013-07-13 15:14:00,72.0,63.0,30.09,East,90,5.0,5.0,75,0.00,,,0.00,TxWx,2013-07-13 19:14:00,
2013-07-13 15:15:00,63.0,61.0,30.12,SSE,157,0.0,0.0,94,0.00,,,0.00,TxWx,2013-07-13 19:15:00,
2013-07-13 15:16:00,72.0,64.0,30.09,NE,45,3.0,5.0,75,0.00,,,0.00,TxWx,2013-07-13 19:16:00,
2013-07-13 15:17:00,63.0,61.0,30.12,SSE,157,0.0,0.0,94,0.00,,,0.00,TxWx,2013-07-13 19:17:00,
2013-07-13 15:18:00,63.0,61.0,30.12,South,180,0.0,0.0,94,0.00,,,0.00,TxWx,2013-07-13 19:18:00,
2013-07-13 15:19:00,63.0,61.0,30.12,South,180,0.0,0.0,94,0.00,,,0.00,TxWx,2013-07-13 19:19:00,
2013-07-13 15:20:00,63.0,61.0,30.12,South,180,0.0,0.0,94,0.00,,,0.00,TxWx,2013-07-13 19:20:00,
2013-07-13 15:21:00,73.0,65.0,30.09,SE,135,1.0,2.0,76,0.00,,,0.00,TxWx,2013-07-13 19:21:00,
2013-07-13 15:22:00,63.0,61.0,30.12,South,180,0.0,0.0,94,0.00,,,0.00,TxWx,2013-07-13 19:22:00,
2013-07-13 15:23:00,63.0,61.0,30.12,South,180,0.0,0.0,94,0.00,,,0.00,TxWx,2013-07-13 19:23:00,
2013-07-13 15:24:00,63.0,61.0,30.12,South,180,0.0,0.0,94,0.00,,,0.00,TxWx,2013-07-13 19:24:00,
2013-07-13 15:25:00,63.0,61.0,30.12,South,180,0.0,0.0,94,0.00,,,0.00,TxWx,2013-07-13 19:25:00,
2013-07-13 15:26:00,63.0,61.0,30.12,South,180,0.0,0.0,94,0.00,,,0.00,TxWx,2013-07-13 19:26:00,
2013-07-13 15:27:00,73.0,65.0,30.09,South,180,0.0,1.0,76,0.00,,,0.00,TxWx,2013-07-13 19:27:00,
2013-07-13 15:28:00,63.0,61.0,30.12,South,180,0.0,0.0,94,0.00,,,0.00,TxWx,2013-07-13 19:28:00,
2013-07-13 15:29:00,63.0,61.0,30.12,South,180,0.0,0.0,94,0.00,,,0.00,TxWx,2013-07-13 19:29:00,
2013-07-13 15:30:00,63.0,61.0,30.12,SSW,202,0.0,0.0,94,0.00,,,0.00,TxWx,2013-07-13 19:30:00,
2013-07-13 15:31:00,63.0,61.0,30.12,SSW,202,0.0,0.0,94,0.00,,,0.00,TxWx,2013-07-13 19:31:00,
2013-07-13 15:32:00,73.0,64.0,30.09,South,180,1.0,5.0,75,0.00,,,0.00,TxWx,2013-07-13 19:32:00,
2013-07-13 15:33:00,63.0,61.0,30.12,SSW,202,0.0,0.0,94,0.00,,,0.00,TxWx,2013-07-13 19:33:00,
2013-07-13 15:34:00,63.0,61.0,30.12,SSW,202,0.0,0.0,94,0.00,,,0.00,TxWx,2013-07-13 19:34:00,
2013-07-13 15:35:00,63.0,61.0,30.12,South,180,0.0,0.0,94,0.00,,,0.00,TxWx,2013-07-13 19:35:00,
2013-07-13 15:36:00,63.0,61.0,30.12,NNE,22,0.0,0.0,94,0.00,,,0.00,TxWx,2013-07-13 19:36:00,
2013-07-13 15:37:00,73.0,64.0,30.09,East,90,2.0,2.0,75,0.00,,,0.00,TxWx,2013-07-13 19:37:00,
2013-07-13 15:38:00,63.0,61.0,30.12,ESE,112,0.0,0.0,94,0.00,,,0.00,TxWx,2013-07-13 19:38:00,
2013-07-13 15:39:00,63.0,61.0,30.12,South,180,0.0,0.0,94,0.00,,,0.00,TxWx,2013-07-13 19:39:00,
2013-07-13 15:40:00,63.0,61.0,30.12,South,180,0.0,0.0,94,0.00,,,0.00,TxWx,2013-07-13 19:40:00,
2013-07-13 15:41:00,63.0,61.0,30.12,South,180,0.0,0.0,94,0.00,,,0.00,TxWx,2013-07-13 19:41:00,
2013-07-13 15:42:00,63.0,61.0,30.12,South,180,0.0,0.0,94,0.00,,,0.00,TxWx,2013-07-13 19:42:00,
2013-07-13 15:43:00,73.0,64.0,30.09,ESE,112,3.0,3.0,75,0.00,,,0.00,TxWx,2013-07-13 19:43:00,
2013-07-13 15:44:00,63.0,61.0,30.12,South,180,0.0,0.0,95,0.00,,,0.00,TxWx,2013-07-13 19:44:00,
2013-07-13 15:45:00,63.0,61.0,30.12,South,180,0.0,0.0,95,0.00,,,0.00,TxWx,2013-07-13 19:45:00,
2013-07-13 15:46:00,63.0,61.0,30.12,South,180,0.0,0.0,95,0.00,,,0.00,TxWx,2013-07-13 19:46:00,
2013-07-13 15:47:00,63.0,61.0,30.12,South,180,0.0,0.0,95,0.00,,,0.00,TxWx,2013-07-13 19:47:00,
2013-07-13 15:48:00,73.0,65.0,30.09,South,180,1.0,1.0,75,0.00,,,0.00,TxWx,2013-07-13 19:48:00,
2013-07-13 15:50:00,63.0,61.0,30.12,SSW,202,0.0,0.0,95,0.00,,,0.00,TxWx,2013-07-13 19:50:00,
2013-07-13 15:51:00,63.0,61.0,30.12,South,180,0.0,0.0,95,0.00,,,0.00,TxWx,2013-07-13 19:51:00,
2013-07-13 15:53:00,73.0,65.0,30.09,SSE,157,1.0,1.0,76,0.00,,,0.00,TxWx,2013-07-13 19:53:00,
2013-07-13 15:54:00,63.0,61.0,30.12,SSE,157,0.0,0.0,95,0.00,,,0.00,TxWx,2013-07-13 19:54:00,
2013-07-13 15:55:00,63.0,61.0,30.12,SE,135,0.0,0.0,95,0.00,,,0.00,TxWx,2013-07-13 19:55:00,
2013-07-13 15:56:00,63.0,61.0,30.12,South,180,0.0,0.0,95,0.00,,,0.00,TxWx,2013-07-13 19:56:00,
2013-07-13 15:57:00,63.0,61.0,30.12,South,180,0.0,0.0,95,0.00,,,0.00,TxWx,2013-07-13 19:57:00,
2013-07-13 15:58:00,72.0,64.0,30.09,SSW,202,2.0,3.0,76,0.00,,,0.00,TxWx,2013-07-13 19:58:00,
2013-07-13 16:00:00,63.0,61.0,30.12,South,180,0.0,0.0,95,0.00,,,0.00,TxWx,2013-07-13 20:00:00,
2013-07-13 16:02:00,63.0,61.0,30.12,South,180,0.0,0.0,95,0.00,,,0.00,TxWx,2013-07-13 20:02:00,
2013-07-13 16:03:00,72.0,64.0,30.09,SE,135,3.0,3.0,77,0.00,,,0.00,TxWx,2013-07-13 20:03:00,
2013-07-13 16:09:00,72.0,65.0,30.09,SE,135,3.0,3.0,78,0.00,,,0.00,TxWx,2013-07-13 20:09:00,
2013-07-13 16:14:00,72.0,65.0,30.09,SE,135,3.0,4.0,79,0.00,,,0.00,TxWx,2013-07-13 20:14:00,
2013-07-13 16:19:00,73.0,66.0,30.09,SSE,157,1.0,1.0,78,0.00,,,0.00,TxWx,2013-07-13 20:19:00,
2013-07-13 16:25:00,73.0,65.0,30.08,SE,135,3.0,3.0,77,0.00,,,0.00,TxWx,2013-07-13 20:25:00,
2013-07-13 16:30:00,73.0,65.0,30.09,SE,135,3.0,3.0,77,0.00,,,0.00,TxWx,2013-07-13 20:30:00,
2013-07-13 16:35:00,73.0,65.0,30.09,ESE,112,3.0,3.0,77,0.00,,,0.00,TxWx,2013-07-13 20:35:00,
2013-07-13 16:40:00,73.0,65.0,30.09,SSW,202,1.0,1.0,77,0.00,,,0.00,TxWx,2013-07-13 20:40:00,
2013-07-13 16:46:00,73.0,65.0,30.08,SSW,202,1.0,2.0,77,0.00,,,0.00,TxWx,2013-07-13 20:46:00,
2013-07-13 16:51:00,74.0,66.0,30.08,South,180,0.0,1.0,77,0.00,,,0.00,TxWx,2013-07-13 20:51:00,
2013-07-13 16:56:00,74.0,66.0,30.08,ESE,112,4.0,5.0,76,0.00,,,0.00,TxWx,2013-07-13 20:56:00,
2013-07-13 17:02:00,75.0,66.0,30.08,SSW,202,1.0,1.0,75,0.00,,,0.00,TxWx,2013-07-13 21:02:00,
2013-07-13 17:07:00,75.0,66.0,30.08,ESE,112,5.0,6.0,73,0.00,,,0.00,TxWx,2013-07-13 21:07:00,
2013-07-13 17:12:00,74.0,65.0,30.08,SE,135,2.0,3.0,74,0.00,,,0.00,TxWx,2013-07-13 21:12:00,
2013-07-13 17:17:00,74.0,66.0,30.08,ESE,112,3.0,5.0,75,0.00,,,0.00,TxWx,2013-07-13 21:17:00,
2013-07-13 17:23:00,74.0,65.0,30.08,SSW,202,3.0,6.0,75,0.00,,,0.00,TxWx,2013-07-13 21:23:00,
2013-07-13 17:28:00,74.0,65.0,30.08,SSE,157,3.0,3.0,75,0.00,,,0.00,TxWx,2013-07-13 21:28:00,
2013-07-13 17:34:00,75.0,67.0,30.07,SSE,157,3.0,3.0,75,0.00,,,0.00,TxWx,2013-07-13 21:34:00,
2013-07-13 17:39:00,75.0,66.0,30.07,SSW,202,2.0,2.0,74,0.00,,,0.00,TxWx,2013-07-13 21:39:00,
2013-07-13 17:44:00,75.0,66.0,30.07,SSW,202,1.0,2.0,74,0.00,,,0.00,TxWx,2013-07-13 21:44:00,
2013-07-13 17:49:00,75.0,66.0,30.07,SE,135,3.0,4.0,73,0.00,,,0.00,TxWx,2013-07-13 21:49:00,
2013-07-13 17:55:00,75.0,66.0,30.07,SSW,202,3.0,3.0,73,0.00,,,0.00,TxWx,2013-07-13 21:55:00,
2013-07-13 18:00:00,75.0,65.0,30.07,SE,135,5.0,5.0,72,0.00,,,0.00,TxWx,2013-07-13 22:00:00,
2013-07-13 18:05:00,75.0,65.0,30.07,South,180,5.0,5.0,72,0.00,,,0.00,TxWx,2013-07-13 22:05:00,
2013-07-13 18:10:00,75.0,66.0,30.07,South,180,4.0,4.0,73,0.00,,,0.00,TxWx,2013-07-13 22:10:00,
2013-07-13 18:15:00,75.0,66.0,30.07,ENE,67,5.0,5.0,73,0.00,,,0.00,TxWx,2013-07-13 22:15:00,
2013-07-13 18:21:00,75.0,66.0,30.07,South,180,1.0,1.0,74,0.00,,,0.00,TxWx,2013-07-13 22:21:00,
2013-07-13 18:26:00,75.0,66.0,30.07,ENE,67,1.0,3.0,74,0.00,,,0.00,TxWx,2013-07-13 22:26:00,
2013-07-13 18:31:00,75.0,66.0,30.08,SW,225,2.0,4.0,74,0.00,,,0.00,TxWx,2013-07-13 22:31:00,
2013-07-13 18:36:00,74.0,65.0,30.08,ESE,112,2.0,3.0,74,0.00,,,0.00,TxWx,2013-07-13 22:36:00,
2013-07-13 18:42:00,74.0,66.0,30.08,South,180,2.0,2.0,75,0.00,,,0.00,TxWx,2013-07-13 22:42:00,
2013-07-13 18:47:00,74.0,66.0,30.08,SSE,157,2.0,2.0,76,0.00,,,0.00,TxWx,2013-07-13 22:47:00,
2013-07-13 18:52:00,74.0,66.0,30.08,ESE,112,1.0,1.0,76,0.00,,,0.00,TxWx,2013-07-13 22:52:00,
2013-07-13 18:58:00,74.0,66.0,30.08,SE,135,2.0,3.0,76,0.00,,,0.00,TxWx,2013-07-13 22:58:00,
2013-07-13 19:03:00,74.0,66.0,30.09,SE,135,3.0,3.0,76,0.00,,,0.00,TxWx,2013-07-13 23:03:00,
2013-07-13 19:08:00,74.0,66.0,30.08,SSE,157,2.0,4.0,77,0.00,,,0.00,TxWx,2013-07-13 23:08:00,
2013-07-13 19:14:00,73.0,65.0,30.08,South,180,4.0,5.0,77,0.00,,,0.00,TxWx,2013-07-13 23:14:00,
2013-07-13 19:19:00,73.0,66.0,30.09,SW,225,3.0,3.0,78,0.00,,,0.00,TxWx,2013-07-13 23:19:00,
2013-07-13 19:24:00,73.0,66.0,30.09,South,180,0.0,1.0,79,0.00,,,0.00,TxWx,2013-07-13 23:24:00,
2013-07-13 19:29:00,73.0,66.0,30.08,SE,135,2.0,3.0,79,0.00,,,0.00,TxWx,2013-07-13 23:29:00,
2013-07-13 19:35:00,73.0,66.0,30.09,South,180,0.0,0.0,80,0.00,,,0.00,TxWx,2013-07-13 23:35:00,
2013-07-13 19:40:00,73.0,66.0,30.09,South,180,1.0,1.0,80,0.00,,,0.00,TxWx,2013-07-13 23:40:00,
2013-07-13 19:45:00,72.0,65.0,30.09,SSE,157,3.0,3.0,80,0.00,,,0.00,TxWx,2013-07-13 23:45:00,
2013-07-13 19:50:00,72.0,65.0,30.09,South,180,1.0,3.0,80,0.00,,,0.00,TxWx,2013-07-13 23:50:00,
2013-07-13 19:55:00,72.0,66.0,30.09,SSE,157,1.0,1.0,81,0.00,,,0.00,TxWx,2013-07-13 23:55:00,
2013-07-13 20:01:00,71.0,65.0,30.09,South,180,1.0,1.0,81,0.00,,,0.00,TxWx,2013-07-14 00:01:00,
2013-07-13 20:06:00,71.0,65.0,30.09,SE,135,1.0,1.0,82,0.00,,,0.00,TxWx,2013-07-14 00:06:00,
2013-07-13 20:11:00,71.0,65.0,30.09,South,180,1.0,1.0,82,0.00,,,0.00,TxWx,2013-07-14 00:11:00,
2013-07-13 20:16:00,71.0,65.0,30.09,West,270,1.0,1.0,82,0.00,,,0.00,TxWx,2013-07-14 00:16:00,
2013-07-13 20:21:00,70.0,65.0,30.09,SSE,157,1.0,1.0,83,0.00,,,0.00,TxWx,2013-07-14 00:21:00,
2013-07-13 20:26:00,70.0,65.0,30.09,South,180,0.0,0.0,84,0.00,,,0.00,TxWx,2013-07-14 00:26:00,
2013-07-13 20:32:00,70.0,65.0,30.09,SE,135,1.0,1.0,84,0.00,,,0.00,TxWx,2013-07-14 00:32:00,
2013-07-13 20:37:00,70.0,65.0,30.09,South,180,0.0,0.0,85,0.00,,,0.00,TxWx,2013-07-14 00:37:00,
2013-07-13 20:42:00,69.0,64.0,30.09,South,180,0.0,0.0,85,0.00,,,0.00,TxWx,2013-07-14 00:42:00,
2013-07-13 20:47:00,69.0,64.0,30.09,South,180,0.0,0.0,85,0.00,,,0.00,TxWx,2013-07-14 00:47:00,
2013-07-13 20:53:00,69.0,64.0,30.09,South,180,0.0,0.0,85,0.00,,,0.00,TxWx,2013-07-14 00:53:00,
2013-07-13 20:58:00,69.0,64.0,30.09,SE,135,1.0,1.0,86,0.00,,,0.00,TxWx,2013-07-14 00:58:00,
2013-07-13 21:03:00,68.0,64.0,30.10,East,90,1.0,2.0,86,0.00,,,0.00,TxWx,2013-07-14 01:03:00,
2013-07-13 21:08:00,68.0,64.0,30.10,ESE,112,1.0,1.0,87,0.00,,,0.00,TxWx,2013-07-14 01:08:00,
2013-07-13 21:13:00,68.0,64.0,30.10,South,180,0.0,1.0,87,0.00,,,0.00,TxWx,2013-07-14 01:13:00,
2013-07-13 21:18:00,68.0,64.0,30.10,SSE,157,0.0,1.0,87,0.00,,,0.00,TxWx,2013-07-14 01:18:00,
2013-07-13 21:24:00,67.0,63.0,30.10,South,180,0.0,0.0,88,0.00,,,0.00,TxWx,2013-07-14 01:24:00,
2013-07-13 21:29:00,67.0,63.0,30.10,South,180,0.0,0.0,88,0.00,,,0.00,TxWx,2013-07-14 01:29:00,
2013-07-13 21:34:00,67.0,63.0,30.10,South,180,0.0,0.0,88,0.00,,,0.00,TxWx,2013-07-14 01:34:00,
2013-07-13 21:39:00,67.0,63.0,30.10,SSW,202,0.0,0.0,88,0.00,,,0.00,TxWx,2013-07-14 01:39:00,
2013-07-13 21:45:00,67.0,63.0,30.10,SE,135,1.0,1.0,89,0.00,,,0.00,TxWx,2013-07-14 01:45:00,
2013-07-13 21:50:00,67.0,64.0,30.10,South,180,0.0,0.0,89,0.00,,,0.00,TxWx,2013-07-14 01:50:00,
2013-07-13 21:55:00,66.0,63.0,30.10,South,180,0.0,0.0,89,0.00,,,0.00,TxWx,2013-07-14 01:55:00,
2013-07-13 22:00:00,66.0,63.0,30.11,South,180,0.0,0.0,89,0.00,,,0.00,TxWx,2013-07-14 02:00:00,
2013-07-13 22:06:00,66.0,63.0,30.11,South,180,0.0,0.0,90,0.00,,,0.00,TxWx,2013-07-14 02:06:00,
2013-07-13 22:11:00,66.0,63.0,30.11,SSW,202,0.0,0.0,90,0.00,,,0.00,TxWx,2013-07-14 02:11:00,
2013-07-13 22:16:00,66.0,63.0,30.11,South,180,0.0,0.0,90,0.00,,,0.00,TxWx,2013-07-14 02:16:00,
2013-07-13 22:21:00,65.0,62.0,30.11,SSW,202,0.0,0.0,90,0.00,,,0.00,TxWx,2013-07-14 02:21:00,
2013-07-13 22:27:00,65.0,62.0,30.11,South,180,0.0,0.0,90,0.00,,,0.00,TxWx,2013-07-14 02:27:00,
2013-07-13 22:32:00,65.0,62.0,30.11,South,180,0.0,0.0,90,0.00,,,0.00,TxWx,2013-07-14 02:32:00,
2013-07-13 22:37:00,65.0,62.0,30.11,South,180,0.0,1.0,91,0.00,,,0.00,TxWx,2013-07-14 02:37:00,
2013-07-13 22:43:00,65.0,62.0,30.11,South,180,0.0,0.0,91,0.00,,,0.00,TxWx,2013-07-14 02:43:00,
2013-07-13 22:48:00,65.0,62.0,30.11,SSW,202,0.0,0.0,91,0.00,,,0.00,TxWx,2013-07-14 02:48:00,
2013-07-13 22:53:00,65.0,62.0,30.11,South,180,0.0,0.0,91,0.00,,,0.00,TxWx,2013-07-14 02:53:00,
2013-07-13 22:58:00,64.0,61.0,30.11,South,180,0.0,0.0,91,0.00,,,0.00,TxWx,2013-07-14 02:58:00,
2013-07-13 23:04:00,64.0,61.0,30.11,SE,135,0.0,1.0,92,0.00,,,0.00,TxWx,2013-07-14 03:04:00,
2013-07-13 23:09:00,64.0,61.0,30.12,South,180,0.0,0.0,92,0.00,,,0.00,TxWx,2013-07-14 03:09:00,
2013-07-13 23:14:00,64.0,62.0,30.12,South,180,0.0,0.0,92,0.00,,,0.00,TxWx,2013-07-14 03:14:00,
2013-07-13 23:19:00,64.0,62.0,30.12,South,180,0.0,0.0,92,0.00,,,0.00,TxWx,2013-07-14 03:19:00,
2013-07-13 23:25:00,64.0,62.0,30.12,SSE,157,0.0,0.0,92,0.00,,,0.00,TxWx,2013-07-14 03:25:00,
2013-07-13 23:30:00,64.0,62.0,30.12,South,180,0.0,0.0,93,0.00,,,0.00,TxWx,2013-07-14 03:30:00,
2013-07-13 23:35:00,64.0,62.0,30.12,South,180,0.0,0.0,93,0.00,,,0.00,TxWx,2013-07-14 03:35:00,
2013-07-13 23:41:00,64.0,62.0,30.12,SSW,202,0.0,0.0,93,0.00,,,0.00,TxWx,2013-07-14 03:41:00,
2013-07-13 23:46:00,64.0,62.0,30.12,SSE,157,0.0,0.0,93,0.00,,,0.00,TxWx,2013-07-14 03:46:00,
2013-07-13 23:51:00,64.0,62.0,30.12,South,180,0.0,0.0,93,0.00,,,0.00,TxWx,2013-07-14 03:51:00,
2013-07-13 23:57:00,63.0,61.0,30.12,SSE,157,0.0,0.0,93,0.00,,,0.00,TxWx,2013-07-14 03:57:00,